TimeCST,TemperatureF,Dew PointF,Humidity,Sea Level PressureIn,VisibilityMPH,Wind Direction,Wind SpeedMPH,Gust SpeedMPH,PrecipitationIn,Events,Conditions,WindDirDegrees,DateUTC
12:15 AM,19.4,15.8,86,30.12,10.0,Calm,Calm,-,N/A,,Overcast,0,2013-12-26 06:15:00
12:34 AM,19.4,15.8,86,30.11,10.0,South,5.8,-,N/A,,Overcast,190,2013-12-26 06:34:00
12:55 AM,21.2,17.6,86,30.12,10.0,SW,6.9,-,N/A,,Overcast,220,2013-12-26 06:55:00
1:15 AM,23.0,19.4,86,30.11,10.0,SSW,3.5,-,N/A,,Overcast,210,2013-12-26 07:15:00
1:35 AM,23.0,19.4,86,30.10,10.0,SSW,6.9,-,N/A,,Overcast,200,2013-12-26 07:35:00
1:54 AM,23.0,21.2,93,30.10,10.0,SSW,5.8,-,N/A,,Overcast,200,2013-12-26 07:54:00
2:14 AM,23.0,21.2,93,30.10,10.0,SSW,8.1,-,N/A,,Overcast,210,2013-12-26 08:14:00
2:35 AM,23.0,21.2,93,30.10,10.0,SSW,9.2,-,N/A,,Overcast,200,2013-12-26 08:35:00
2:54 AM,23.0,21.2,93,30.10,10.0,SSW,8.1,-,N/A,,Overcast,210,2013-12-26 08:54:00
3:15 AM,23.0,21.2,93,30.09,10.0,SSW,6.9,-,N/A,,Overcast,200,2013-12-26 09:15:00
3:34 AM,23.0,19.4,86,30.09,10.0,SSW,8.1,-,N/A,,Overcast,200,2013-12-26 09:34:00
3:54 AM,21.2,17.6,86,30.08,10.0,SSW,4.6,-,N/A,,Overcast,200,2013-12-26 09:54:00
4:14 AM,19.4,17.6,93,30.08,10.0,SSW,3.5,-,N/A,,Mostly Cloudy,210,2013-12-26 10:14:00
4:35 AM,21.2,17.6,86,30.08,10.0,South,4.6,-,N/A,,Overcast,190,2013-12-26 10:35:00
4:55 AM,21.2,19.4,93,30.08,10.0,South,4.6,-,N/A,,Overcast,190,2013-12-26 10:55:00
5:15 AM,21.2,19.4,93,30.08,10.0,South,6.9,-,N/A,,Overcast,190,2013-12-26 11:15:00
5:34 AM,21.2,19.4,93,30.08,10.0,SSW,5.8,-,N/A,,Mostly Cloudy,200,2013-12-26 11:34:00
5:54 AM,19.4,17.6,93,30.08,10.0,SSW,5.8,-,N/A,,Scattered Clouds,210,2013-12-26 11:54:00
6:15 AM,19.4,17.6,93,30.08,10.0,SSW,5.8,-,N/A,,Scattered Clouds,200,2013-12-26 12:15:00
6:34 AM,19.4,17.6,93,30.07,10.0,South,3.5,-,N/A,,Scattered Clouds,180,2013-12-26 12:34:00
6:54 AM,19.4,17.6,93,30.08,10.0,Calm,Calm,-,N/A,,Scattered Clouds,0,2013-12-26 12:54:00
7:15 AM,19.4,15.8,86,30.08,10.0,South,4.6,-,N/A,,Scattered Clouds,190,2013-12-26 13:15:00
7:34 AM,19.4,17.6,93,30.08,10.0,South,4.6,-,N/A,,Overcast,190,2013-12-26 13:34:00
7:55 AM,19.4,17.6,93,30.08,10.0,South,4.6,-,N/A,,Overcast,190,2013-12-26 13:55:00
8:15 AM,21.2,19.4,93,30.08,10.0,Calm,Calm,-,N/A,,Mostly Cloudy,0,2013-12-26 14:15:00
8:35 AM,21.2,17.6,86,30.09,10.0,South,4.6,-,N/A,,Scattered Clouds,190,2013-12-26 14:35:00
8:54 AM,19.4,17.6,93,30.09,10.0,South,3.5,-,N/A,,Scattered Clouds,180,2013-12-26 14:54:00
9:14 AM,21.2,19.4,93,30.09,10.0,SSE,3.5,-,N/A,,Scattered Clouds,150,2013-12-26 15:14:00
9:35 AM,21.2,19.4,93,30.10,10.0,SSE,3.5,-,N/A,,Scattered Clouds,160,2013-12-26 15:35:00
9:54 AM,23.0,21.2,93,30.11,10.0,Calm,Calm,-,N/A,,Scattered Clouds,0,2013-12-26 15:54:00
10:15 AM,23.0,19.4,86,30.10,10.0,Calm,Calm,-,N/A,,Clear,0,2013-12-26 16:15:00
10:34 AM,24.8,21.2,86,30.10,10.0,South,3.5,-,N/A,,Scattered Clouds,180,2013-12-26 16:34:00
10:55 AM,26.6,21.2,80,30.10,10.0,South,3.5,-,N/A,,Mostly Cloudy,190,2013-12-26 16:55:00
11:15 AM,26.6,21.2,80,30.10,10.0,South,3.5,-,N/A,,Overcast,180,2013-12-26 17:15:00
11:35 AM,26.6,21.2,80,30.09,10.0,South,4.6,-,N/A,,Overcast,170,2013-12-26 17:35:00
11:55 AM,28.4,21.2,74,30.08,10.0,South,5.8,-,N/A,,Overcast,180,2013-12-26 17:55:00
12:14 PM,30.2,23.0,75,30.08,10.0,South,3.5,-,N/A,,Overcast,170,2013-12-26 18:14:00
12:35 PM,30.2,23.0,75,30.08,10.0,South,3.5,-,N/A,,Overcast,190,2013-12-26 18:35:00
12:55 PM,30.2,23.0,75,30.08,10.0,South,4.6,-,N/A,,Overcast,190,2013-12-26 18:55:00
1:15 PM,30.2,23.0,75,30.07,10.0,SSW,3.5,-,N/A,,Overcast,200,2013-12-26 19:15:00
1:35 PM,30.2,23.0,75,30.07,10.0,SSW,4.6,-,N/A,,Overcast,210,2013-12-26 19:35:00
1:54 PM,30.2,24.8,80,30.06,10.0,South,4.6,-,N/A,,Overcast,190,2013-12-26 19:54:00
2:14 PM,30.2,26.6,86,30.06,10.0,South,3.5,-,N/A,,Overcast,170,2013-12-26 20:14:00
2:35 PM,30.2,26.6,86,30.06,10.0,SSE,4.6,-,N/A,,Overcast,160,2013-12-26 20:35:00
2:55 PM,32.0,26.6,80,30.06,10.0,Calm,Calm,-,N/A,,Overcast,0,2013-12-26 20:55:00
3:14 PM,32.0,26.6,80,30.06,10.0,SSE,4.6,-,N/A,,Overcast,160,2013-12-26 21:14:00
3:35 PM,32.0,26.6,80,30.07,10.0,Calm,Calm,-,N/A,,Overcast,0,2013-12-26 21:35:00
3:55 PM,32.0,26.6,80,30.08,10.0,Calm,Calm,-,N/A,,Overcast,0,2013-12-26 21:55:00
4:15 PM,30.2,26.6,86,30.08,10.0,SE,4.6,-,N/A,,Overcast,130,2013-12-26 22:15:00
4:34 PM,30.2,24.8,80,30.09,10.0,SE,3.5,-,N/A,,Overcast,140,2013-12-26 22:34:00
4:55 PM,30.2,24.8,80,30.10,10.0,SE,3.5,-,N/A,,Overcast,140,2013-12-26 22:55:00
5:15 PM,30.2,24.8,80,30.10,10.0,SE,4.6,-,N/A,,Overcast,130,2013-12-26 23:15:00
5:35 PM,30.2,24.8,80,30.11,10.0,Calm,Calm,-,N/A,,Overcast,0,2013-12-26 23:35:00
5:55 PM,30.2,24.8,80,30.11,10.0,SE,3.5,-,N/A,,Overcast,140,2013-12-26 23:55:00
6:15 PM,30.2,26.6,86,30.12,10.0,Calm,Calm,-,N/A,,Overcast,0,2013-12-27 00:15:00
6:35 PM,30.2,26.6,86,30.13,10.0,Calm,Calm,-,N/A,,Overcast,0,2013-12-27 00:35:00
6:54 PM,30.2,26.6,86,30.13,10.0,SE,3.5,-,N/A,,Overcast,130,2013-12-27 00:54:00
7:15 PM,30.2,26.6,86,30.13,10.0,Calm,Calm,-,N/A,,Overcast,0,2013-12-27 01:15:00
7:35 PM,30.2,26.6,86,30.13,10.0,Calm,Calm,-,N/A,,Overcast,0,2013-12-27 01:35:00
7:55 PM,30.2,26.6,86,30.14,10.0,Calm,Calm,-,N/A,,Overcast,0,2013-12-27 01:55:00
8:15 PM,30.2,26.6,86,30.14,10.0,Calm,Calm,-,N/A,,Overcast,0,2013-12-27 02:15:00
8:35 PM,30.2,26.6,86,30.14,10.0,Calm,Calm,-,N/A,,Overcast,0,2013-12-27 02:35:00
8:55 PM,30.2,26.6,86,30.14,10.0,Calm,Calm,-,N/A,,Overcast,0,2013-12-27 02:55:00
9:15 PM,30.2,26.6,86,30.15,10.0,Calm,Calm,-,N/A,,Overcast,0,2013-12-27 03:15:00
9:35 PM,30.2,26.6,86,30.15,10.0,Calm,Calm,-,N/A,,Overcast,0,2013-12-27 03:35:00
9:55 PM,30.2,26.6,86,30.15,10.0,Calm,Calm,-,N/A,,Overcast,0,2013-12-27 03:55:00
10:15 PM,30.2,26.6,86,30.15,10.0,Calm,Calm,-,N/A,,Overcast,0,2013-12-27 04:15:00
10:35 PM,28.4,26.6,93,30.15,10.0,WSW,3.5,-,N/A,,Mostly Cloudy,250,2013-12-27 04:35:00
10:55 PM,26.6,24.8,93,30.15,7.0,Calm,Calm,-,N/A,,Scattered Clouds,0,2013-12-27 04:55:00
11:14 PM,26.6,23.0,86,30.16,7.0,Calm,Calm,-,N/A,,Clear,0,2013-12-27 05:14:00
11:35 PM,23.0,21.2,93,30.17,5.0,Calm,Calm,-,N/A,,Clear,0,2013-12-27 05:35:00
11:54 PM,23.0,19.4,86,30.17,0.8,Calm,Calm,-,N/A,,Mist,0,2013-12-27 05:54:00